Regional Weather Roundup
Issued by NWS Kansas City/Pleasant Hill, MO

Home | Current Version | Previous Version | Text Only | Print | Product List | Glossary On
Versions: 1 2 3 4 5 6 7 8 9 10 11 12 13 14 15 16 17 18 19 20 21 22 23 24 25 26 27 28 29 30 31 32 33 34 35 36 37 38 39 40 41 42 43 44 45 46 47 48 49 50
000
ASUS43 KEAX 031004
RWREAX

WEATHER ROUNDUP FOR EASTERN KANSAS AND NORTHWEST MISSOURI
NATIONAL WEATHER SERVICE KANSAS CITY/PLEASANT HILL MO
500 AM CDT SUN MAY 03 2015

KSZ040-057-103>105-MOZ028-029-037-043-031100-
...KANSAS CITY METROPOLITAN AREA...

CITY           SKY/WX    TMP DP  RH WIND       PRES   REMARKS
K.C. INTL      CLOUDY    64  53  67 S20       29.86S
K.C. DOWNTOWN  CLOUDY    66  52  60 S10       29.88R
LEES SUMMIT    CLOUDY    63  51  65 S10       29.91R
OLATHE - IXD   CLOUDY    61  52  72 S8        29.91R
OLATHE - OJC   CLOUDY    63  53  70 S8        29.90R
LAWRENCE       CLOUDY    63  53  70 S5        29.90R

$$

MOZ001>008-011>017-020>025-030>033-038>040-044>046-053-054-031100-
...NORTHERN AND CENTRAL MISSOURI...

CITY           SKY/WX    TMP DP  RH WIND       PRES   REMARKS
ST. JOSEPH     CLOUDY    59  53  80 CALM      29.85R
MOSBY          CLOUDY    59  52  77 SE6       29.89R
WHITEMAN AFB   CLOUDY    58  52  79 S8        29.91S
CLINTON        CLOUDY    63  52  67 S8        29.93R
SEDALIA        CLOUDY    60  50  69 S9        29.94S
WARSAW         NOT AVBL
MARSHALL       CLOUDY    61  54  77 SE7       29.93S
CHILLICOTHE      N/A     66  52  60 S9        29.89S
MOBERLY        CLOUDY    61  45  55 S9        29.93S
KIRKSVILLE     CLOUDY    57  51  80 S8        29.91S

$$

MOZ041-047>049-056>058-063>065-088>090-097-031100-
...EASTERN AND SOUTHERN MISSOURI...

CITY           SKY/WX    TMP DP  RH WIND       PRES   REMARKS
ST. LOUIS INTL CLOUDY    65  43  44 SE8       30.00R
SPIRIT OF STL  CLOUDY    58  47  66 CALM      29.98S
COLUMBIA       MOCLDY    57  47  69 S9        29.95S
JEFFERSON CITY MOCLDY    62  45  53 SE5       29.96R
MEXICO         MOCLDY    59  50  72 S8        29.95S
HANNIBAL       MOCLDY    59  45  58 S7        29.94S
ROLLA          CLOUDY    59  45  59 S9        29.98R
LEBANON        CLOUDY    57  48  72 S5        29.99R
OSAGE BEACH    CLOUDY    57  45  62 SE5       29.97R
SPRINGFIELD    MOCLDY    58  48  69 S10       29.97R
BRANSON        PTCLDY    59  48  67 CALM      30.00S
NEVADA         MOCLDY    57  50  77 S7        29.94R
JOPLIN         PTCLDY    60  50  69 S9        29.95R
WEST PLAINS    MOCLDY    60  41  49 S6        30.03S

$$

IAZ060-094-KSZ022-034>040-054-083-096-NEZ052-066-093-031100-
...KANSAS...SOUTHEAST NEBRASKA AND IOWA...

CITY           SKY/WX    TMP DP  RH WIND       PRES   REMARKS
TOPEKA         LGT RAIN  64  57  78 S7        29.87R
MANHATTAN      CLOUDY    66  57  72 S12G20    29.79S
EMPORIA        CLOUDY    61  54  77 S10       29.86R
CHANUTE        PTCLDY    62  52  69 S12       29.90S
WICHITA        CLOUDY    63  55  75 S15       29.84S
OMAHA          MOCLDY    60  57  89 S13       29.77F
LINCOLN        CLEAR     62  54  74 SE15      29.78F
FALLS CITY     MOCLDY    59  53  80 E8        29.82F
LAMONI         CLOUDY    59  53  80 S6        29.87F
DES MOINES     LGT RAIN  62  54  74 S13       29.78F

$$




USA.gov is the U.S. government's official web portal to all federal, state and local government web resources and services.